Location: Les Granges-Gontardes
(44.4168°N, 4.7642°E)
Time: 06:54:38
(UTC+00:00)

Daily predictions for brighter satellites

Satellite Brightness Start Highest point End
(mag) Time Altitude Azimuth Time Altitude Azimuth Time Altitude Azimuth
CSL-04 Debris 4.4 18:02:19 10° SE 18:07:28 50° ENE 18:12:40 10° N
Cosmos 1939 Rocket 3.4 18:05:43 10° S 18:09:49 66° W 18:13:58 10° NNW
CZ-2D R/B 3.4 18:05:59 10° SSE 18:09:52 86° WSW 18:13:47 10° NNW
Sich 1 Rocket 4.4 18:06:32 10° SSE 18:10:26 30° E 18:14:22 10° NNE
Cosmos 1689 Rocket 4.4 18:11:38 10° N 18:14:18 30° WNW 18:16:56 10° SW
Meteor 1-21 4.3 18:08:50 10° N 18:14:21 57° ENE 18:19:50 10° SSE
Helios 1A Rocket 3.8 18:10:33 10° S 18:14:34 56° W 18:18:39 10° NNW
MOS 1 Rocket 3.9 18:11:26 10° NNE 18:15:21 30° E 18:19:08 10° SSE
CSL-04 Rocket 3.8 18:10:37 10° SSE 18:15:54 56° ENE 18:21:15 10° N
Cosmos 1603 3.7 18:10:19 10° NNW 18:16:01 81° ENE 18:21:39 10° SSE
SJ 16-02 2.6 18:13:53 10° SW 18:18:06 47° WNW 18:22:21 10° N
Cosmos 2112 Rocket 4.2 18:16:05 10° NNW 18:21:18 77° WSW 18:26:31 10° SSE
Cosmos 1937 Rocket 3.5 18:16:35 10° S 18:21:48 68° ESE 18:27:00 10° NNE
NOSS 8 (H) 4.2 18:19:18 10° SW 18:22:34 83° NW 18:25:35 10° NE
Cosmos 1680 Rocket 4.1 18:19:38 10° NNW 18:24:47 62° WSW 18:29:56 10° S
Abrixas rocket 2.8 18:26:13 10° W 18:28:56 41° N 18:31:40 10° ENE
Okean 2 Rocket 3.9 18:25:04 10° SSE 18:28:58 30° E 18:32:52 10° NNE
Cosmos 1464 Rocket 4.3 18:24:55 10° SSE 18:30:33 40° E 18:36:15 10° NNE
NOSS 2-2 (E) 3.0 18:27:27 10° SSW 18:30:53 62° ESE 18:34:40 10° NE
Okean-O 3.7 18:30:59 10° S 18:35:16 48° W 18:39:35 10° NNW
USA 116 3.5 18:32:26 10° NNE 18:35:53 89° E 18:39:46 10° SSW
Okean 2 3.8 18:32:28 10° NNW 18:36:38 68° W 18:40:45 10° S
ATLAS 2AS CENTAUR R/B 4.3 18:32:58 10° SE 18:36:40 14° ESE 18:40:23 10° ENE
Cosmos 1300 Rocket 4.1 18:33:34 10° SSE 18:37:33 35° E 18:41:35 10° NNE
CZ-2C R/B 2.9 18:35:37 10° SW 18:38:01 17° S 18:39:59 12° SE
NOSS 2-2 (D) 3.0 18:36:08 10° SSW 18:39:34 58° ESE 18:43:17 10° NE
Iridium 4 Rocket 4.1 18:38:47 10° SSW 18:43:38 62° W 18:48:59 10° N
USA 102 4.2 18:38:58 12° SE 18:43:48 28° E 18:45:14 20° NE
YAOGAN 1 3.4 18:40:24 10° S 18:44:37 53° W 18:48:52 10° NNW
Cosmos 1975 3.8 18:41:19 10° SSW 18:45:18 52° WNW 18:49:19 10° N
CENTAUR R/B 3.9 18:38:26 10° NNW 18:45:39 38° NE 18:51:59 16° E
H-2A R/B 1.9 18:43:46 10° SSE 18:48:43 87° ENE 18:53:48 10° NNW
SJ-11-01 4.3 18:44:36 10° SSE 18:49:20 85° WSW 18:54:04 10° NNW
CZ-4 R/B 3.1 18:46:07 10° SSW 18:50:02 37° W 18:53:59 10° NNW
Cosmos 1437 3.8 18:48:19 10° NNW 18:51:13 44° W 18:54:04 10° S
Cosmos 1674 4.1 18:48:47 10° NNE 18:51:40 20° ENE 18:52:09 19° E
ATLAS 3B R/B 4.4 18:47:16 10° NNW 18:51:58 19° NNE 18:56:45 10° ENE
ISS -3.8 18:50:33 10° SW 18:53:54 70° SE 18:56:09 19° ENE
Cosmos 1536 Rocket 4.1 18:52:10 10° N 18:56:19 37° ENE 18:58:59 19° SE
USA 238 DEB 4.2 18:50:25 10° NNW 18:57:23 50° NE 19:02:30 20° ESE
USA 238 4.2 18:50:31 10° NNW 18:57:29 50° NE 19:02:35 20° ESE
Cosmos 1891 Rocket 4.4 18:51:50 10° S 18:57:56 71° E 19:03:59 10° NNE
In-Cosmos 22 4.1 18:53:42 10° N 18:58:56 57° ENE 19:04:12 10° SSE
ARGOS 3.1 18:56:52 10° SSE 19:02:14 87° ENE 19:07:39 10° NNW
Cosmos 1025 Rocket 3.0 19:02:00 10° N 19:06:22 63° E 19:10:02 14° SSE
CZ-2C R/B 2.9 19:01:20 10° NNE 19:06:44 50° E 19:12:09 10° S
Cosmos 1707 2.7 19:05:45 10° N 19:09:36 81° W 19:13:25 10° S
Cosmos 2151 Rocket 3.6 19:05:57 10° S 19:10:18 57° E 19:14:43 10° NNE
USA 186 1.5 19:13:02 32° SSE 19:14:21 80° ENE 19:17:34 10° N
Ariane Rocket 2.9 19:12:56 15° SSE 19:17:11 74° ENE 19:22:16 10° N
SJ-6B 2.7 19:16:15 35° SE 19:17:36 60° ENE 19:21:19 10° N
CZ-2C R/B 4.4 19:13:30 10° SSW 19:18:23 41° W 19:23:34 10° NNW
Cosmos 1844 3.9 19:14:05 10° S 19:19:27 44° ESE 19:24:47 10° NE
FREGAT/IRIS 3.2 19:20:39 38° NNE 19:20:39 38° NNE 19:22:28 10° N
Cosmos 2263 Rocket 3.8 19:16:34 10° WSW 19:21:38 35° NW 19:26:44 10° N
Nadezhda 4 Rocket 3.8 19:17:50 10° N 19:23:59 73° E 19:29:17 14° SSE
NOSS 2-2 (C) 4.1 19:20:49 10° WSW 19:24:13 46° NW 19:27:59 10° NNE
Cosmos 494 Rocket 4.4 19:19:37 10° N 19:24:38 43° ENE 19:26:05 35° ESE
NOSS 3-2 (A) 4.0 19:17:43 10° NW 19:25:14 74° NE 19:30:19 27° SE
MOS 1 4.2 19:21:25 17° SSE 19:25:52 76° ENE 19:31:35 10° NNW
Cosmos 2034 Rocket 3.9 19:21:41 10° S 19:28:03 81° E 19:34:25 10° N
Cosmos 1844 Rocket 2.6 19:22:38 10° S 19:28:06 64° ESE 19:33:39 10° NNE
USA 102 4.1 19:24:07 22° SSE 19:28:22 59° WSW 19:29:59 26° NW
Cosmos 2298 Rocket 4.0 19:25:12 10° SSW 19:30:32 88° ESE 19:35:55 10° NNE
SPOT 3 Rocket 3.8 19:32:57 40° ESE 19:34:11 48° ENE 19:39:09 10° N
Resurs 01 Rocket 2.2 19:42:54 39° NE 19:42:54 39° NE 19:46:40 10° N
USA 234 3.2 19:37:36 10° NE 19:44:04 61° SE 19:50:31 10° SW
MetOp-A 4.1 19:43:00 25° S 19:46:12 81° WSW 19:51:35 10° NNW
Lacrosse 5 rocket 4.0 19:43:53 10° NW 19:46:42 16° N 19:49:28 10° NE
Cosmos 1833 Rocket 4.0 19:46:46 10° N 19:51:15 23° NE 19:51:25 23° NE
OBJECT-B 2.0 19:52:33 38° NNW 19:52:33 38° NNW 19:54:41 10° NNW
Meteor 1-15 Rocket 4.2 19:46:55 10° S 19:52:32 87° W 19:58:17 10° N
Cosmos 1626 3.9 19:54:29 10° N 19:56:03 22° NNE 19:56:03 22° NNE
ARIANE 5 R/B 4.0 20:01:02 27° NNE 20:01:02 27° NNE 20:03:27 10° N
NOSS 3-2 (C) 4.0 19:52:30 10° NW 20:00:04 77° NE 20:03:03 44° SE
DMSP B5D2-2 4.4 19:55:06 10° N 20:00:22 67° WNW 20:05:36 10° SSW
Cosmos 1634 Rocket 3.9 19:59:03 48° SSE 20:00:40 65° E 20:06:48 10° NNE
BREEZE-M TANK 2.6 19:56:50 10° WSW 20:04:29 89° S 20:04:38 84° E
Cosmos 2285 Rocket 3.9 20:01:42 10° SSW 20:08:00 89° WNW 20:14:24 10° NNE
Cosmos 1125 Rocket 3.7 20:02:49 10° SSW 20:08:06 72° WNW 20:13:26 10° NNE
Okean 1 Rocket 3.2 20:08:19 74° W 20:08:27 75° W 20:12:57 10° N
Cosmos 1627 Rocket 4.5 20:11:45 10° N 20:18:11 88° W 20:19:39 57° S
Resurs 1-3 4.1 20:18:56 55° W 20:18:56 55° W 20:23:11 10° NNW
Cosmos 1092 Rocket 4.2 20:17:22 10° NNW 20:23:26 65° W 20:25:37 40° SSW
Meteor 2-5 Rocket 3.8 20:19:02 10° NNW 20:24:40 71° W 20:25:28 62° SSW
ATLAS 2AS CENTAUR R/B 2.9 20:18:30 10° SSW 20:26:19 67° ESE 20:34:09 10° NE
Cosmos 1674 4.5 20:23:50 10° NNW 20:27:00 29° W 20:27:00 29° W
Cosmos 2026 Rocket 4.1 20:23:21 10° N 20:29:43 77° W 20:30:53 60° SSW
ISS -0.9 20:27:55 10° W 20:29:08 18° WNW 20:29:08 18° WNW
Cosmos 2082 Rocket 3.6 20:28:39 10° N 20:32:16 26° NNE 20:32:16 26° NNE
Meteor 1-22 Rocket 4.3 20:34:25 76° WSW 20:34:45 79° WNW 20:40:48 10° N
CENTAUR R/B 3.2 20:28:58 10° NW 20:37:09 76° WSW 20:39:10 57° S
Cosmos 2279 Rocket 4.1 20:44:35 67° NNE 20:44:35 67° NNE 20:49:56 10° N
ATLAS 3B R/B 3.0 20:37:35 10° NNW 20:44:10 52° NE 20:44:10 52° NE
COSMOS 2406 3.7 20:38:42 10° NNW 20:43:09 54° N 20:43:09 54° N
Cosmos 2142 Rocket 4.5 20:47:06 78° WNW 20:47:06 78° WNW 20:53:17 10° N
Meteor 1-24 Rocket 4.1 20:41:59 10° NNW 20:47:08 59° W 20:47:08 59° W
Terra 4.1 21:02:36 18° N 21:02:36 18° N 21:03:54 10° N
Lacrosse 4 Rocket 4.3 21:06:10 10° NNW 21:06:37 13° N 21:06:37 13° N
Resurs 01 Rocket 4.1 21:20:28 18° WNW 21:20:28 18° WNW 21:22:30 10° NW
USA 234 3.9 21:24:44 36° NNE 21:27:00 51° NNW 21:33:16 10° W
Lacrosse 5 rocket 4.3 21:23:50 10° NNW 21:25:05 15° NNW 21:25:05 15° NNW
Cosmos 1833 Rocket 4.2 21:30:04 10° NNW 21:33:07 32° NW 21:33:07 32° NW
Cosmos 2082 Rocket 4.4 22:12:23 10° NW 22:14:06 20° NW 22:14:06 20° NW
ATLAS 2AS CENTAUR R/B 4.1 22:10:28 10° WSW 22:17:50 39° NW 22:25:07 10° NNE
ATLAS 3B R/B 4.4 22:28:32 10° NW 22:31:25 24° WNW 22:31:25 24° WNW
